Dordrecht, Netherlands

5:12 PM CEST on April 19, 2018 (GMT +0200)
Dordrecht

Weather History for 06344 - March, 2013

Change the Weather History Date:

Friday, March 22, 2013

  Actual Average Record
Temperature  
Mean Temperature 34 °F -  
Max Temperature 41 °F 53 °F - ()
Min Temperature 28 °F 39 °F - ()
Degree Days  
Heating Degree Days 30    
Moisture  
Dew Point 26 °F    
Average Humidity 74    
Maximum Humidity 93    
Minimum Humidity 53    
Precipitation  
Precipitation 0.00 in - - ()
Sea Level Pressure  
Sea Level Pressure 30.01 in    
Wind  
Wind Speed 14 mph ()    
Max Wind Speed 26 mph    
Max Gust Speed 38 mph    
Visibility 5.5 miles    
Events      
T = Trace of Precipitation, MM = Missing Value Source: Averaged Metar Reports

Daily Weather History Graph

Daily Weather History Graph

Search for Another Location

Airport or City:

Astronomy

Mar. 22, 2013 Rise Set
Actual Time 6:40 AM CET 6:58 PM CET
Civil Twilight 6:06 AM CET 7:32 PM CET
Nautical Twilight 5:26 AM CET 8:12 PM CET
Astronomical Twilight 4:44 AM CET 8:54 PM CET
Moon 1:40 PM CET (3/22) 4:03 AM CET (3/22)
Length of Visible Light 13h 26m
Length of Day
12h 18m
Waxing Gibbous, 75% of the Moon is Illuminated
Mar 22
Waxing Gibbous
Mar 27
Full
Apr 3
Last Quarter
Apr 10
New
Apr 18
First Quarter

Hourly Weather History & Observations

Time (CET) Temp. Windchill Dew Point Humidity Pressure Visibility Wind Dir Wind Speed Gust Speed Precip Events Conditions
12:25 AM 32.0 °F 23.6 °F 26.6 °F 80% 30.12 in 6.2 mi East 10.4 mph - N/A   Unknown
12:55 AM 30.2 °F 21.9 °F 26.6 °F 86% 30.12 in 5.6 mi East 9.2 mph - N/A   Unknown
1:00 AM 30 °F - 27 °F 85% 30.13 in 6 mi East 8.9 mph - -   Mist
1:25 AM 30.2 °F 21.9 °F 26.6 °F 86% 30.12 in 5.0 mi ENE 9.2 mph - N/A   Unknown
1:55 AM 30.2 °F 21.3 °F 26.6 °F 86% 30.09 in 5.0 mi ENE 10.4 mph - N/A   Unknown
2:25 AM 30.2 °F 20.8 °F 26.6 °F 86% 30.09 in 5.0 mi ENE 11.5 mph - N/A   Unknown
2:55 AM 30.2 °F 21.3 °F 26.6 °F 86% 30.09 in 4.3 mi East 10.4 mph - N/A   Unknown
3:25 AM 30.2 °F 21.9 °F 26.6 °F 86% 30.09 in 4.3 mi East 9.2 mph - N/A   Partly Cloudy
3:55 AM 28.4 °F 18.5 °F 26.6 °F 93% 30.09 in 3.7 mi East 11.5 mph - N/A   Partly Cloudy
4:00 AM 29 °F - 27 °F 87% 30.09 in 4 mi East 8.9 mph - -   Mist
4:25 AM 28.4 °F 19.7 °F 26.6 °F 93% 30.06 in 3.1 mi East 9.2 mph - N/A   Partly Cloudy
4:55 AM 28.4 °F 18.5 °F 26.6 °F 93% 30.06 in 3.1 mi East 11.5 mph - N/A   Scattered Clouds
5:25 AM 28.4 °F 18.5 °F 26.6 °F 93% 30.06 in 3.1 mi East 11.5 mph - N/A   Overcast
5:55 AM 28.4 °F 18.0 °F 26.6 °F 93% 30.06 in 3.1 mi East 12.7 mph - N/A   Mostly Cloudy
6:25 AM 28.4 °F 18.0 °F 26.6 °F 93% 30.06 in 3.1 mi East 12.7 mph - N/A   Mostly Cloudy
6:55 AM 28.4 °F 18.0 °F 26.6 °F 93% 30.06 in 3.1 mi East 12.7 mph - N/A   Partly Cloudy
7:00 AM 28 °F - 26 °F 87% 30.08 in 3 mi East 13.4 mph - -   Mist
7:25 AM 28.4 °F 17.0 °F 26.6 °F 93% 30.06 in 3.1 mi East 15.0 mph - N/A   Partly Cloudy
7:55 AM 30.2 °F 19.8 °F 26.6 °F 86% 30.06 in 3.7 mi East 13.8 mph - N/A   Unknown
8:25 AM 30.2 °F 19.8 °F 26.6 °F 86% 30.06 in 4.3 mi East 13.8 mph - N/A   Unknown
8:55 AM 32.0 °F 21.6 °F 26.6 °F 80% 30.06 in 4.3 mi East 15.0 mph - N/A   Partly Cloudy
9:25 AM 32.0 °F 20.5 °F 26.6 °F 80% 30.04 in 5.0 mi East 18.4 mph - N/A   Partly Cloudy
9:55 AM 33.8 °F 23.2 °F 28.4 °F 81% 30.04 in 5.0 mi East 17.3 mph - N/A   Partly Cloudy
10:00 AM 34 °F - 28 °F 69% 30.05 in 5 mi East 17.9 mph - -   Light Haze
10:25 AM 35.6 °F 24.5 °F 28.4 °F 75% 30.04 in 5.0 mi East 20.7 mph - N/A   Partly Cloudy
10:55 AM 35.6 °F 25.2 °F 28.4 °F 75% 30.04 in 5.6 mi East 18.4 mph - N/A   Scattered Clouds
11:25 AM 37.4 °F 26.6 °F 28.4 °F 70% 30.01 in 5.6 mi East 21.9 mph - N/A   Scattered Clouds
11:55 AM 37.4 °F 27.2 °F 28.4 °F 70% 30.01 in 5.6 mi East 19.6 mph - N/A   Scattered Clouds
12:25 PM 39.2 °F 29.0 °F 28.4 °F 65% 30.01 in 6.2 mi East 21.9 mph - N/A   Partly Cloudy
12:55 PM 39.2 °F 29.0 °F 26.6 °F 61% 29.98 in 6.2 mi East 21.9 mph - N/A   Partly Cloudy
1:00 PM 39 °F - 28 °F 53% 30.00 in 7 mi East 20.1 mph - -   Partly Cloudy
1:25 PM 39.2 °F 29.0 °F 28.4 °F 65% 29.98 in 6.2 mi East 21.9 mph - N/A   Scattered Clouds
1:55 PM 39.2 °F 29.3 °F 28.4 °F 65% 29.98 in 6.2 mi East 20.7 mph - N/A   Scattered Clouds
2:25 PM 39.2 °F 29.3 °F 28.4 °F 65% 29.95 in 6.2 mi East 20.7 mph - N/A   Partly Cloudy
2:55 PM 41.0 °F 30.9 °F 28.4 °F 61% 29.95 in 6.2 mi East 24.2 mph - N/A   Scattered Clouds
3:25 PM 39.2 °F 29.0 °F 28.4 °F 65% 29.95 in 6.2 mi East 21.9 mph - N/A   Scattered Clouds
3:55 PM 39.2 °F 29.0 °F 28.4 °F 65% 29.95 in 6.2 mi East 21.9 mph - N/A   Scattered Clouds
4:00 PM 38 °F - 27 °F 54% 29.96 in 11 mi East 22.4 mph - -   Partly Cloudy
4:25 PM 37.4 °F 26.4 °F 26.6 °F 65% 29.95 in 6.2 mi East 23.0 mph - N/A   Scattered Clouds
4:55 PM 37.4 °F 27.2 °F 26.6 °F 65% 29.95 in 6.2 mi East 19.6 mph - N/A   Partly Cloudy
5:25 PM 37.4 °F 26.1 °F 26.6 °F 65% 29.95 in 6.2 mi East 24.2 mph - N/A   Unknown
5:55 PM 37.4 °F 26.1 °F 26.6 °F 65% 29.95 in 6.2 mi East 24.2 mph 35.7 mph N/A   Unknown
6:25 PM 35.6 °F 23.4 °F 24.8 °F 65% 29.95 in 6.2 mi East 25.3 mph - N/A   Unknown
6:55 PM 35.6 °F 24.5 °F 24.8 °F 65% 29.95 in 6.2 mi East 20.7 mph 33.4 mph N/A   Unknown
7:00 PM 35 °F - 25 °F 57% 29.95 in 13 mi East 22.4 mph - -   Partly Cloudy
7:25 PM 35.6 °F 24.0 °F 24.8 °F 65% 29.95 in 6.2 mi East 23.0 mph - N/A   Unknown
7:55 PM 35.6 °F 24.2 °F 24.8 °F 65% 29.95 in 6.2 mi East 21.9 mph - N/A   Unknown
8:25 PM 35.6 °F 24.0 °F 24.8 °F 65% 29.95 in 6.2 mi East 23.0 mph 34.5 mph N/A   Unknown
8:55 PM 33.8 °F 21.0 °F 24.8 °F 70% 29.95 in 6.2 mi East 25.3 mph 38.0 mph N/A   Unknown
9:25 PM 33.8 °F 20.8 °F 24.8 °F 70% 29.95 in 6.2 mi East 26.5 mph - N/A   Unknown
9:55 PM 33.8 °F 21.6 °F 24.8 °F 70% 29.95 in 6.2 mi East 23.0 mph - N/A   Unknown
10:00 PM 34 °F - 24 °F 55% 29.95 in 22 mi East 22.4 mph - -   Overcast
10:25 PM 33.8 °F 21.9 °F 24.8 °F 70% 29.95 in 6.2 mi East 21.9 mph 33.4 mph N/A   Unknown
10:55 PM 33.8 °F 21.3 °F 23.0 °F 65% 29.95 in 6.2 mi East 24.2 mph 38.0 mph N/A   Unknown
11:25 PM 33.8 °F 22.5 °F 23.0 °F 65% 29.95 in 6.2 mi East 19.6 mph 31.1 mph N/A   Unknown
11:55 PM 33.8 °F 22.2 °F 23.0 °F 65% 29.95 in 6.2 mi East 20.7 mph 34.5 mph N/A   Unknown